Temperature
13 12 12 12 12 12 12 12 12 12 12 12 12 12 12 12 12 12 12 12 12 12 12 12 12 12 12 12 12 11 11 11 11 11 11 11 11 11 11 11 11 11 11
12 12 12 12 12 12 12 12 12 12 12 12 12 12 12 12 12 12 12 12 12 12 12 12 11 11 11 11 11 11 11 11 11 11 11 11 11 11 11 11 11 11 11
12 12 12 12 12 12 12 12 11 11 11 11 11 11 11 11 11 11 11 11 11 11 11 11 11 11 11 11 11 11 11 11 11 10 11 11 11 11 11 10 10 10 10
12 12 12 12 12 12 12 11 11 11 11 11 11 11 11 11 11 11 11 11 11 11 11 11 11 11 11 11 11 11 11 10 10 10 10 10 10 10 10 10 10 10 10
12 12 11 11 11 11 11 11 11 11 11 11 11 11 11 11 11 11 11 11 11 11 10 11 11 11 10 10 10 10 10 10 10 10 10 10 10 10 10 10 10 10 10
11 11 11 11 11 11 11 11 11 11 10 10 10 10 10 10 10 10 10 10 10 10 10 10 10 10 10 10 10 10 10 10 10 10 9 9 9 9 9 9 9 9 9
11 11 11 11 11 11 11 10 10 10 10 10 10 9 9 10 10 10 10 10 10 10 10 10 10 10 10 10 10 10 10 9 9 9 9 9 9 9 9 9 9 9 9
11 11 11 10 10 10 10 10 10 10 10 9 9 9 9 8 9 9 9 9 9 9 9 9 9 9 10 9 9 9 9 9 9 9 9 9 8 8 8 8 8 8 8
10 10 10 10 10 10 10 10 10 10 9 9 9 9 9 9 8 8 9 9 9 9 9 9 9 9 9 9 9 9 9 9 9 8 8 8 8 8 8 8 8 8 8
10 10 10 10 10 10 10 10 10 9 9 9 9 9 9 9 8 8 8 8 8 8 8 8 8 8 8 8 8 8 8 8 8 8 8 8 8 8 7 7 7 7 7
9 9 9 9 9 9 9 9 9 9 9 9 9 9 9 9 9 8 8 8 8 8 8 8 8 8 8 8 8 8 8 8 8 8 8 7 7 7 7 7 7 7 7
9 9 9 9 9 9 9 9 9 9 9 9 8 8 8 8 8 8 8 7 7 7 7 7 7 7 7 7 7 7 7 7 7 7 7 7 7 7 7 7 7 7 6
9 9 9 9 9 9 9 9 8 8 8 8 8 8 8 8 8 8 8 7 7 7 7 7 7 7 7 7 7 7 7 7 7 7 7 7 7 6 6 6 6 6 6
8 9 8 8 8 8 8 8 8 8 8 8 8 8 7 7 7 7 7 7 7 6 6 6 6 6 6 6 6 6 6 6 6 6 6 6 6 6 6 6 6 6 6
8 8 8 8 8 8 8 8 7 8 8 7 7 7 7 7 7 7 7 7 6 6 6 6 6 6 6 6 6 6 6 6 6 6 6 6 6 6 6 6 6 6 5
7 8 8 8 8 7 7 7 7 7 7 7 7 7 7 7 6 6 6 6 6 6 5 5 6 6 6 6 6 5 5 5 6 6 6 6 6 6 5 5 5 5 5
7 7 7 7 7 7 7 7 7 7 7 7 6 6 6 6 6 6 6 6 5 5 5 5 5 5 5 5 5 5 5 5 5 5 5 5 5 5 5 5 5 5 5
7 7 7 7 7 7 7 6 6 6 6 6 6 6 6 5 6 6 5 5 5 5 5 5 5 5 5 5 5 5 5 5 5 5 5 5 4 4 4 4 4 4 4
6 6 6 6 6 6 6 6 6 6 6 6 6 5 5 5 5 5 5 5 5 4 4 4 4 4 4 4 4 4 4 4 4 4 4 4 4 4 4 4 4 4 4
5 5 6 6 6 6 6 5 5 5 5 5 5 5 5 5 5 5 5 4 4 4 4 4 4 4 4 4 3 3 3 3 4 3 3 3 3 3 3 3 3 3 3
5 5 5 5 5 5 5 5 5 5 5 5 4 4 4 4 4 4 4 4 4 4 4 4 3 3 3 3 3 3 3 3 3 3 3 3 3 3 3 3 3 3 3
4 4 4 4 4 4 4 4 4 4 4 4 4 4 4 4 4 4 4 4 4 3 3 3 3 3 3 3 3 2 2 2 2 2 2 2 2 2 2 3 3 2 2
3 3 3 3 3 4 4 4 4 4 4 4 4 4 4 4 4 4 4 3 3 3 3 3 3 3 3 3 2 2 2 2 2 2 2 2 2 2 2 2 2 2 2
2 3 3 3 3 3 3 3 3 3 4 4 4 3 3 4 3 3 3 3 3 3 3 2 2 2 2 2 2 2 1 1 1 1 1 1 1 1 1 1 1 1 1
2 2 2 2 2 3 3 3 3 3 3 3 3 3 3 3 3 3 2 2 2 2 2 2 2 2 2 2 2 1 1 1 0 1 1 0 1 1 1 1 1 1 1
1 1 1 2 2 2 2 2 2 2 2 2 2 2 2 2 2 2 2 2 2 2 2 2 1 1 1 1 1 1 1 0 -0 -0 0 0 0 -0 -0 0 0 0 0
Wind_Speed
6 6 6 5 5 5 5 5 5 6 6 5 5 4 4 4 4 4 4 6 5 5 5 5 5 5 5 5 5 5 5 6 6 6 5 5 5 6 6 6 5 6 6
6 6 6 5 5 5 6 6 6 6 5 5 5 4 4 4 4 4 3 5 6 5 4 4 4 4 4 4 5 5 5 5 5 5 5 5 4 4 4 4 5 5 5
8 7 6 5 5 6 7 6 7 6 5 5 5 4 4 4 4 4 3 3 4 5 5 4 3 3 3 3 4 4 4 4 4 4 4 4 3 3 2 3 3 4 4
8 7 6 5 6 7 6 6 5 5 5 4 4 3 4 4 4 4 4 3 3 3 5 6 4 3 3 3 2 3 3 2 3 3 3 3 2 1 1 1 2 3 3
9 8 6 6 7 6 6 5 5 5 5 5 4 4 3 3 3 3 4 4 4 3 4 6 6 5 4 3 3 3 3 3 3 3 2 2 2 1 0 0 1 2 2
8 8 7 7 7 6 5 5 6 5 5 5 5 4 3 3 3 3 2 3 3 3 3 3 3 4 6 4 4 3 3 3 2 1 1 2 2 1 1 0 1 1 1
8 8 6 7 6 6 6 6 6 6 4 4 3 3 2 2 2 2 2 2 3 3 3 3 3 3 3 4 4 3 3 2 2 2 1 2 2 2 2 1 1 0 0
8 7 7 6 6 5 6 6 6 4 3 3 3 3 2 2 1 1 1 1 2 2 3 3 3 3 3 2 4 4 2 1 1 1 1 1 1 1 1 2 2 1 1
8 7 8 7 7 6 6 6 6 5 4 3 2 2 3 3 2 2 1 1 1 1 2 3 3 3 3 3 2 3 3 2 1 1 1 2 2 2 1 1 1 2 2
7 7 7 7 7 6 6 6 5 5 6 4 2 0 1 1 2 2 2 1 1 0 1 1 2 2 2 2 2 3 4 2 1 2 2 2 3 3 2 1 1 2 2
6 7 7 7 6 6 6 6 6 5 5 5 4 2 1 1 1 2 2 2 2 1 0 1 0 1 2 2 2 3 3 3 2 2 3 2 2 3 2 2 2 2 2
5 6 6 6 6 6 6 6 6 6 5 5 4 3 3 2 3 2 2 3 2 1 1 1 1 0 1 1 2 4 3 3 3 2 2 3 3 3 3 3 2 2 2
5 7 6 6 6 6 6 6 6 5 5 5 4 3 3 2 2 2 2 2 2 1 1 2 1 1 1 2 2 3 3 2 2 2 2 2 3 3 3 3 3 3 3
6 6 7 6 6 6 6 6 5 5 4 5 5 4 3 2 2 2 2 2 2 2 3 3 2 2 1 2 3 3 3 3 3 3 3 3 3 3 4 4 4 4 4
5 7 7 7 6 6 6 6 4 5 5 5 5 5 3 2 2 2 2 2 3 3 3 3 2 2 2 3 3 4 4 4 4 4 3 3 4 4 4 4 4 5 5
6 7 7 7 7 6 6 5 5 5 5 5 4 4 4 3 2 2 2 2 3 3 3 2 2 2 3 3 4 4 5 5 4 4 4 5 5 5 5 6 6 6 6
6 7 7 6 6 6 6 6 5 5 6 5 4 5 4 4 3 3 3 3 3 3 4 3 2 2 3 3 3 4 5 5 5 5 6 6 6 7 7 7 7 7 7
6 6 6 6 6 6 6 6 6 6 6 6 6 5 5 4 5 4 3 4 3 4 4 5 3 3 4 4 4 4 4 5 5 6 7 7 8 8 8 8 8 8 8
6 6 6 6 6 6 6 6 6 6 6 6 6 6 6 6 6 5 5 4 4 4 4 5 4 2 3 3 4 4 5 5 5 6 7 7 8 9 9 9 9 9 9
6 6 6 6 6 6 6 6 6 6 6 6 5 6 6 7 7 7 5 6 5 4 4 4 4 3 3 3 3 4 4 4 4 5 6 7 8 9 9 9 10 10 10
6 6 6 5 5 5 5 6 6 6 6 6 6 6 6 7 7 6 5 6 6 5 4 4 4 3 3 3 4 3 4 4 4 4 5 5 6 6 7 9 10 10 10
5 5 5 5 5 4 5 6 5 6 6 6 6 6 5 6 7 6 6 6 6 6 6 5 5 5 6 5 4 4 4 4 4 3 4 5 5 6 6 7 9 10 11
5 5 5 5 5 5 6 6 6 5 5 6 6 5 4 5 6 6 6 6 6 6 6 6 7 7 7 5 5 5 5 6 5 3 4 6 5 6 6 8 10 10 11
4 4 4 4 4 4 5 6 5 5 4 5 5 5 5 5 5 6 5 5 6 6 7 7 6 6 6 6 6 6 6 5 5 4 4 6 5 6 6 7 9 10 12
4 4 4 4 4 4 5 5 4 4 4 4 4 4 4 4 5 5 5 5 5 5 5 6 7 7 7 7 6 4 4 4 5 5 4 4 5 5 6 6 7 9 11
4 3 3 3 3 3 4 5 4 3 4 3 3 3 4 4 4 5 6 6 6 5 4 4 5 6 7 6 6 5 5 5 4 4 3 3 4 3 4 4 5 6 8
Wind_Direction
149 144 139 136 137 135 139 133 132 129 122 117 114 118 116 115 113 114 101 89 97 102 115 126 127 121 119 123 117 116 116 118 113 107 101 94 86 77 70 71 73 69 72
148 145 140 139 138 135 133 131 128 123 115 114 112 109 107 103 101 103 104 96 90 92 98 115 121 118 117 125 128 126 125 125 122 112 109 99 88 79 65 69 71 66 69
149 145 142 142 140 136 132 127 124 120 117 110 101 91 87 85 90 89 86 86 90 85 88 92 95 98 102 118 131 132 133 131 131 123 118 111 95 79 63 66 65 70 67
150 146 145 143 141 139 138 135 135 127 123 119 109 95 85 79 77 76 78 76 73 74 79 80 80 78 85 103 123 125 122 118 133 139 135 134 125 115 85 83 74 71 68
153 149 147 144 145 140 139 139 139 135 130 120 105 92 83 76 71 73 79 73 68 68 73 80 78 64 73 85 82 91 92 107 127 139 135 145 145 144 141 92 100 76 63
155 148 143 145 146 143 143 144 137 131 130 125 109 90 75 74 69 64 68 76 70 65 62 65 76 73 70 68 73 79 73 79 102 135 155 179 188 196 233 203 113 89 79
153 147 142 144 149 152 153 153 145 141 139 144 132 116 89 79 73 60 55 70 71 63 57 49 54 70 75 71 61 69 67 60 71 80 188 217 215 221 217 196 158 90 58
157 154 153 152 153 150 151 154 153 156 153 171 168 162 169 166 110 61 65 61 58 60 56 46 45 56 56 52 57 52 45 39 42 54 42 276 233 229 227 227 232 247 264
162 161 163 159 158 158 161 165 168 170 167 172 189 192 188 193 170 161 115 91 70 56 58 54 54 48 44 39 43 47 36 31 344 309 307 291 266 256 244 269 309 299 275
168 167 167 165 164 165 166 172 178 178 174 173 177 268 310 152 183 174 176 169 152 103 58 58 70 54 41 39 30 25 24 11 327 309 297 288 282 275 268 262 311 355 12
170 170 171 169 168 169 173 173 177 179 181 182 181 178 169 170 214 203 198 193 196 203 268 317 43 42 31 22 9 12 11 3 330 309 304 300 303 296 281 278 291 313 334
174 176 174 172 173 173 176 178 181 183 187 190 188 186 190 199 199 207 212 210 218 208 240 261 262 306 355 351 355 359 348 347 345 332 311 309 319 300 284 285 291 302 320
182 184 178 178 176 175 176 176 181 187 191 190 195 202 208 219 204 212 209 213 227 229 226 227 222 247 291 308 323 337 325 331 332 325 325 322 324 319 313 300 293 296 301
186 183 181 180 177 175 173 173 175 181 185 191 197 202 202 206 206 208 213 210 220 227 229 231 216 220 262 289 313 303 296 308 300 296 300 300 307 315 313 300 288 287 291
179 178 178 178 175 173 175 175 179 182 184 193 198 199 201 201 206 211 214 223 222 226 236 230 224 217 256 272 292 282 280 289 277 271 281 282 280 287 293 292 288 284 277
174 173 176 177 176 174 177 179 182 186 186 192 196 196 199 202 201 201 208 232 239 235 236 240 242 255 257 267 281 277 278 282 267 263 270 272 269 271 274 274 276 278 275
172 172 174 176 177 178 181 184 186 186 191 193 194 199 203 201 201 204 208 222 228 224 234 243 240 245 252 260 272 273 276 274 268 261 263 266 266 264 264 264 267 270 271
175 174 172 175 178 182 184 188 189 191 197 198 200 205 209 205 209 211 212 220 231 231 233 242 242 240 252 258 266 269 270 270 269 264 261 262 261 258 258 261 264 266 268
177 176 175 179 183 186 188 192 192 196 202 205 206 209 213 211 216 217 219 223 229 234 235 239 245 251 256 254 263 270 270 268 271 269 264 260 257 256 257 261 263 264 265
178 178 179 183 185 188 190 192 194 199 203 209 212 214 217 217 220 218 219 223 223 227 229 231 241 246 250 256 255 259 267 267 270 274 271 266 261 256 256 259 260 261 262
179 180 180 182 185 186 191 195 200 201 204 208 213 217 220 221 224 221 220 220 217 222 225 229 236 242 243 245 249 254 261 270 270 269 272 266 264 264 262 257 256 257 260
177 180 182 180 184 188 184 192 200 203 204 207 213 218 221 219 217 218 219 222 219 220 224 229 236 240 247 249 250 246 256 265 273 258 268 272 263 266 265 265 264 260 261
180 182 183 185 190 189 181 189 198 207 207 211 215 217 221 219 216 218 217 221 228 233 235 237 240 246 250 246 243 244 247 254 268 275 266 272 268 267 266 267 265 260 261
181 184 187 190 192 191 180 185 190 204 211 215 219 220 221 223 219 216 219 225 233 238 238 241 250 258 259 251 243 251 256 261 272 270 258 270 274 273 275 270 261 257 260
179 184 188 188 191 192 183 186 187 207 212 220 223 225 223 223 214 206 218 229 238 246 242 238 255 270 275 267 252 243 243 249 265 267 254 264 277 283 279 270 266 261 262
179 179 183 190 193 199 184 184 190 204 210 219 228 233 230 226 218 207 221 227 238 249 251 255 261 269 269 263 242 238 241 246 263 265 246 253 275 285 280 271 275 278 271
Height
1542 1544 1546 1547 1549 1550 1551 1552 1554 1555 1556 1558 1559 1560 1562 1563 1563 1564 1565 1566 1566 1567 1567 1567 1567 1568 1568 1568 1568 1568 1568 1568 1568 1568 1567 1567 1567 1566 1566 1566 1565 1565 1564
1541 1543 1544 1546 1548 1549 1550 1552 1553 1554 1556 1557 1558 1560 1561 1562 1563 1564 1564 1565 1566 1566 1567 1567 1567 1568 1568 1568 1568 1568 1568 1568 1567 1567 1567 1567 1567 1566 1566 1566 1565 1565 1564
1540 1542 1543 1545 1547 1548 1549 1551 1552 1553 1555 1556 1557 1559 1560 1561 1562 1563 1564 1564 1565 1566 1566 1566 1567 1567 1567 1567 1567 1567 1567 1567 1567 1567 1567 1567 1566 1566 1566 1565 1565 1564 1564
1538 1540 1542 1544 1546 1547 1548 1550 1551 1553 1554 1555 1557 1558 1559 1560 1561 1562 1563 1564 1564 1565 1565 1565 1566 1566 1566 1566 1566 1566 1566 1566 1566 1566 1566 1566 1566 1565 1565 1565 1564 1564 1563
1537 1539 1541 1543 1544 1546 1547 1549 1551 1552 1553 1554 1556 1557 1558 1559 1560 1561 1562 1563 1563 1564 1564 1564 1565 1565 1565 1565 1565 1565 1565 1565 1565 1565 1565 1565 1564 1564 1564 1563 1563 1563 1562
1535 1537 1539 1541 1543 1545 1546 1548 1549 1551 1552 1553 1555 1556 1557 1558 1559 1560 1561 1562 1562 1562 1563 1563 1563 1564 1564 1564 1564 1564 1564 1564 1564 1564 1564 1564 1563 1563 1562 1562 1562 1561 1561
1533 1535 1537 1539 1541 1543 1545 1546 1548 1549 1551 1552 1554 1555 1557 1557 1558 1559 1559 1560 1560 1561 1561 1562 1562 1562 1562 1563 1563 1563 1563 1563 1562 1562 1562 1562 1562 1561 1561 1560 1560 1560 1559
1531 1534 1536 1538 1539 1541 1543 1545 1546 1548 1549 1551 1553 1554 1556 1558 1557 1557 1558 1558 1559 1559 1559 1560 1560 1560 1561 1561 1561 1561 1561 1561 1561 1561 1561 1560 1560 1559 1559 1559 1558 1558 1557
1529 1531 1534 1536 1538 1540 1541 1543 1545 1546 1547 1549 1551 1553 1554 1555 1556 1556 1556 1556 1557 1557 1557 1558 1558 1558 1559 1559 1559 1559 1559 1559 1558 1559 1558 1558 1558 1557 1557 1557 1556 1556 1555
1527 1529 1531 1534 1536 1537 1539 1541 1543 1544 1546 1547 1548 1550 1552 1552 1554 1554 1555 1554 1555 1555 1555 1556 1556 1556 1556 1557 1557 1557 1556 1556 1556 1556 1556 1556 1555 1555 1554 1554 1554 1553 1553
1524 1526 1529 1531 1533 1535 1537 1539 1540 1542 1544 1545 1546 1547 1549 1549 1550 1551 1552 1553 1553 1553 1553 1554 1554 1554 1554 1555 1555 1554 1554 1554 1553 1553 1553 1553 1553 1552 1552 1551 1551 1551 1550
1520 1523 1526 1528 1530 1532 1534 1536 1538 1539 1541 1543 1544 1545 1546 1547 1548 1549 1549 1550 1551 1551 1551 1551 1551 1552 1552 1552 1552 1552 1551 1551 1551 1550 1550 1550 1549 1549 1548 1548 1548 1548 1548
1517 1520 1522 1525 1527 1529 1531 1533 1535 1536 1538 1540 1541 1542 1544 1545 1545 1546 1547 1547 1548 1548 1549 1549 1549 1549 1549 1550 1550 1549 1549 1549 1548 1547 1547 1547 1546 1546 1546 1545 1545 1545 1545
1514 1517 1519 1522 1524 1526 1528 1530 1532 1533 1535 1536 1538 1539 1540 1542 1543 1543 1544 1545 1545 1546 1546 1547 1546 1547 1546 1547 1547 1547 1546 1546 1545 1545 1544 1544 1544 1543 1543 1542 1542 1541 1542
1511 1513 1516 1518 1520 1522 1525 1527 1528 1530 1532 1533 1534 1536 1537 1538 1539 1540 1541 1543 1544 1543 1544 1544 1544 1544 1543 1543 1543 1543 1543 1543 1542 1542 1541 1541 1540 1540 1540 1539 1539 1538 1538
1507 1509 1512 1515 1517 1519 1521 1523 1525 1527 1528 1529 1531 1532 1534 1535 1536 1537 1538 1539 1540 1540 1540 1540 1540 1540 1540 1540 1540 1540 1540 1539 1539 1538 1538 1538 1537 1537 1536 1536 1535 1535 1534
1503 1506 1509 1511 1513 1515 1518 1520 1521 1523 1524 1526 1527 1529 1530 1532 1533 1534 1535 1535 1536 1537 1537 1537 1537 1537 1537 1537 1536 1536 1536 1535 1535 1535 1534 1534 1533 1533 1532 1532 1531 1531 1530
1500 1502 1505 1508 1510 1512 1514 1516 1518 1519 1521 1522 1523 1525 1527 1528 1529 1530 1531 1532 1532 1533 1534 1533 1533 1533 1533 1533 1532 1532 1532 1531 1531 1530 1530 1530 1529 1529 1528 1527 1527 1526 1526
1496 1498 1501 1504 1506 1508 1510 1512 1514 1516 1517 1518 1520 1521 1523 1524 1525 1526 1527 1528 1529 1529 1529 1530 1529 1529 1529 1529 1529 1528 1528 1527 1527 1526 1526 1525 1525 1524 1523 1523 1522 1521 1521
1493 1495 1497 1500 1502 1504 1506 1508 1510 1512 1513 1515 1516 1517 1519 1520 1521 1522 1523 1524 1525 1525 1525 1525 1525 1525 1525 1525 1525 1524 1524 1523 1523 1522 1522 1521 1520 1519 1519 1518 1517 1517 1516
1489 1491 1494 1496 1498 1500 1502 1504 1506 1508 1509 1510 1512 1513 1514 1516 1517 1518 1519 1520 1521 1521 1521 1521 1521 1521 1521 1521 1521 1520 1520 1519 1518 1518 1517 1516 1516 1515 1514 1513 1513 1512 1511
1486 1488 1490 1492 1494 1496 1498 1500 1502 1504 1505 1506 1508 1509 1510 1511 1513 1514 1515 1516 1517 1517 1517 1517 1517 1517 1517 1517 1517 1516 1516 1515 1514 1514 1513 1512 1511 1510 1509 1509 1508 1507 1506
1482 1484 1486 1488 1489 1492 1494 1497 1498 1500 1501 1502 1504 1505 1506 1507 1508 1509 1510 1511 1512 1512 1513 1513 1512 1512 1513 1512 1513 1512 1511 1511 1510 1509 1509 1507 1506 1505 1504 1503 1503 1502 1501
1479 1481 1482 1484 1486 1488 1491 1493 1494 1496 1497 1498 1499 1501 1502 1502 1504 1505 1505 1506 1507 1507 1508 1508 1508 1508 1508 1508 1508 1508 1507 1506 1505 1504 1504 1502 1501 1500 1499 1498 1497 1496 1495
1476 1477 1479 1481 1483 1485 1487 1489 1490 1491 1492 1494 1495 1496 1497 1498 1499 1500 1501 1501 1502 1502 1503 1503 1503 1503 1503 1503 1503 1502 1501 1501 1499 1499 1499 1498 1496 1494 1493 1492 1491 1490 1489
1473 1474 1476 1478 1480 1482 1483 1485 1487 1487 1488 1489 1490 1492 1493 1494 1495 1495 1496 1497 1497 1498 1498 1498 1498 1498 1497 1497 1497 1497 1496 1496 1494 1493 1493 1493 1491 1490 1487 1486 1485 1484 1483